Weather reports worldwide

Advertisment
Dalwhinnie, United Kingdom (99005): temperature & dewpoint: 20.05.2019 01:00:00 - 26.05.2019 01:00:00 (BST)Dalwhinnie, United Kingdom (99005): precipitation: 20.05.2019 01:00:00 - 26.05.2019 01:00:00 (BST)
Date & Time tt [°C] td [°C] rr [mm]
26.05.2019 01:00:00 - - -
26.05.2019 00:00:00 9,0 8,5 1,2
25.05.2019 23:00:00 9,0 8,5 1,6
25.05.2019 22:00:00 9,1 8,5 1,2
25.05.2019 21:00:00 9,2 8,5 0,8
25.05.2019 20:00:00 9,4 8,7 1,4
25.05.2019 19:00:00 9,5 8,8 0,8
25.05.2019 18:00:00 9,3 8,5 1,0
25.05.2019 17:00:00 9,3 8,4 0,6
25.05.2019 16:00:00 9,4 8,3 0,6
25.05.2019 15:00:00 9,3 7,4 0,6
25.05.2019 14:00:00 9,5 6,8 0,2
25.05.2019 13:00:00 9,6 5,6 0,2
25.05.2019 12:00:00 8,8 4,7 0,2
25.05.2019 11:00:00 8,7 4,5 0,0
25.05.2019 10:00:00 8,0 3,7 0,0
25.05.2019 09:00:00 7,6 3,6 0,0
25.05.2019 08:00:00 6,8 4,1 0,0
25.05.2019 07:00:00 4,0 2,9 0,0
25.05.2019 06:00:00 2,6 1,6 0,0
25.05.2019 05:00:00 2,0 1,4 0,0
25.05.2019 04:00:00 1,4 0,6 0,0
25.05.2019 03:00:00 1,8 0,7 0,0
25.05.2019 02:00:00 2,5 1,2 0,0
25.05.2019 01:00:00 3,7 2,2 0,0
25.05.2019 00:00:00 5,8 2,7 0,0
24.05.2019 23:00:00 7,2 3,6 0,0
24.05.2019 22:00:00 8,8 3,9 0,0
24.05.2019 21:00:00 9,7 4,0 0,0
24.05.2019 20:00:00 10,2 3,2 0,0
24.05.2019 19:00:00 11,6 2,7 0,0
24.05.2019 18:00:00 12,7 2,9 0,0
24.05.2019 17:00:00 13,2 3,3 0,0
24.05.2019 16:00:00 13,0 4,7 0,0
24.05.2019 15:00:00 11,7 3,9 0,0
24.05.2019 14:00:00 11,5 3,9 0,0
24.05.2019 13:00:00 10,7 4,1 0,0
24.05.2019 12:00:00 9,8 3,9 0,0
24.05.2019 11:00:00 9,1 3,7 0,0
24.05.2019 10:00:00 8,3 3,7 0,0
24.05.2019 09:00:00 7,9 3,8 0,0
24.05.2019 08:00:00 7,6 3,5 0,0
24.05.2019 07:00:00 6,8 3,3 0,0
24.05.2019 06:00:00 6,5 3,0 0,0
24.05.2019 05:00:00 6,4 3,6 0,0
24.05.2019 04:00:00 6,6 3,8 0,0
24.05.2019 03:00:00 6,8 4,1 0,0
24.05.2019 02:00:00 6,9 4,2 0,0
24.05.2019 01:00:00 7,0 4,4 0,0
24.05.2019 00:00:00 7,3 4,2 0,0
23.05.2019 23:00:00 7,2 3,8 0,0
23.05.2019 22:00:00 7,8 3,8 0,0
23.05.2019 21:00:00 8,3 3,8 0,0
23.05.2019 20:00:00 9,0 3,8 0,0
23.05.2019 19:00:00 9,8 4,2 0,0
23.05.2019 18:00:00 10,9 4,6 0,0
23.05.2019 17:00:00 11,0 4,0 0,0
23.05.2019 16:00:00 10,7 4,7 0,0
23.05.2019 15:00:00 10,3 5,4 0,0
23.05.2019 14:00:00 10,3 5,9 0,0
23.05.2019 13:00:00 9,6 5,1 0,0
23.05.2019 12:00:00 9,2 5,5 0,0
23.05.2019 11:00:00 9,0 5,1 0,0
23.05.2019 10:00:00 8,0 5,2 0,0
23.05.2019 09:00:00 7,8 5,0 0,0
23.05.2019 08:00:00 7,6 5,1 0,0
23.05.2019 07:00:00 7,5 5,4 0,0
23.05.2019 06:00:00 7,5 5,2 0,0
23.05.2019 05:00:00 7,6 5,2 0,0
23.05.2019 04:00:00 7,7 5,4 0,0
23.05.2019 03:00:00 7,9 5,4 0,0
23.05.2019 02:00:00 8,1 5,6 0,0
23.05.2019 01:00:00 8,1 5,5 0,0
23.05.2019 00:00:00 8,1 5,5 0,0
22.05.2019 23:00:00 8,1 5,4 0,0
22.05.2019 22:00:00 8,1 5,4 0,0
22.05.2019 21:00:00 8,0 5,4 0,0
22.05.2019 20:00:00 8,7 5,2 0,0
22.05.2019 19:00:00 9,2 5,5 0,0
22.05.2019 18:00:00 9,7 5,5 0,0
22.05.2019 17:00:00 10,0 6,1 0,0
22.05.2019 16:00:00 10,9 7,1 0,2
22.05.2019 15:00:00 11,2 6,0 0,0
22.05.2019 14:00:00 10,8 5,2 0,0
22.05.2019 13:00:00 10,6 5,3 0,0
22.05.2019 12:00:00 9,8 5,3 0,0
22.05.2019 11:00:00 9,6 5,4 0,0
22.05.2019 10:00:00 8,2 5,1 0,0
22.05.2019 09:00:00 7,5 4,6 0,0
22.05.2019 08:00:00 6,9 4,1 0,2
22.05.2019 07:00:00 6,5 3,4 0,0
22.05.2019 06:00:00 6,0 2,7 0,0
22.05.2019 05:00:00 5,4 3,5 0,0
22.05.2019 04:00:00 3,2 1,6 0,0
22.05.2019 03:00:00 1,1 -0,2 0,0
22.05.2019 02:00:00 2,8 1,4 0,0
22.05.2019 01:00:00 3,0 1,2 0,0
22.05.2019 00:00:00 4,4 2,7 0,0
21.05.2019 23:00:00 6,4 3,6 0,0
21.05.2019 22:00:00 7,4 3,5 0,0
21.05.2019 21:00:00 8,0 2,2 0,0
21.05.2019 20:00:00 9,5 2,2 0,0
21.05.2019 19:00:00 10,4 3,8 0,0
21.05.2019 18:00:00 10,6 2,2 0,0
21.05.2019 17:00:00 10,9 3,8 0,0
21.05.2019 16:00:00 11,6 2,9 0,0
21.05.2019 15:00:00 12,4 3,8 0,0
21.05.2019 14:00:00 10,9 4,3 0,0
21.05.2019 13:00:00 9,5 3,5 0,0
21.05.2019 12:00:00 10,0 3,2 0,0
21.05.2019 11:00:00 9,3 3,3 0,0
21.05.2019 10:00:00 9,0 4,2 0,0
21.05.2019 09:00:00 8,3 4,2 0,0
21.05.2019 08:00:00 7,8 5,5 0,0
21.05.2019 07:00:00 7,3 6,0 0,0
21.05.2019 06:00:00 7,2 6,3 0,2
21.05.2019 05:00:00 7,0 6,4 0,6
21.05.2019 04:00:00 7,3 6,8 0,2
21.05.2019 03:00:00 7,4 6,8 0,0
21.05.2019 02:00:00 7,5 6,9 0,2
21.05.2019 01:00:00 7,8 7,1 3,0
21.05.2019 00:00:00 7,9 7,1 1,6
20.05.2019 23:00:00 8,1 7,2 0,6
20.05.2019 22:00:00 8,5 7,5 1,2
20.05.2019 21:00:00 8,9 7,5 1,0
20.05.2019 20:00:00 9,0 7,4 0,8
20.05.2019 19:00:00 9,5 8,1 1,8
20.05.2019 18:00:00 10,0 8,3 1,6
20.05.2019 17:00:00 10,6 8,3 1,0
20.05.2019 16:00:00 10,5 8,3 4,0
20.05.2019 15:00:00 11,9 7,8 1,0
20.05.2019 14:00:00 12,6 6,3 0,0
20.05.2019 13:00:00 13,1 6,7 0,0
20.05.2019 12:00:00 12,4 6,6 0,0
20.05.2019 11:00:00 11,9 7,0 0,0
20.05.2019 10:00:00 10,6 7,0 0,0
20.05.2019 09:00:00 9,7 7,0 0,0
20.05.2019 08:00:00 9,3 7,2 0,0
20.05.2019 07:00:00 8,6 7,9 0,0
20.05.2019 06:00:00 8,0 7,5 0,0
20.05.2019 05:00:00 7,9 7,3 0,0
20.05.2019 04:00:00 8,1 7,4 0,6
20.05.2019 03:00:00 8,3 7,6 0,0
20.05.2019 02:00:00 8,4 7,7 0,0
20.05.2019 01:00:00 8,5 7,6 0,0

tt = temperature
td = dewpoint
rr = precipitation

Next stations